KE0TRL Weather Reports


Display with metric or nautical units.
time (UTC)temp
F
wind
direction
speed
MPH
gust
MPH
rain 1hr
in
rain 24hr
in
rain mn
in
humidity
%
barometer
mb
20260504204202 79 158 4.0 8.0 0.00 0.00 0.00 32 1001.4
20260504203102 79 180 4.0 7.0 0.00 0.00 0.00 34 1001.4
20260504202003 80 270 3.0 8.0 0.00 0.00 0.00 35 1001.4
20260504200902 79 203 7.0 7.0 0.00 0.00 0.00 35 1001.4
20260504193602 79 180 3.0 11.0 0.00 0.00 0.00 35 1001.0
20260504192502 80 203 5.0 9.0 0.00 0.00 0.00 35 1001.0
20260504191302 79 180 7.0 7.0 0.00 0.00 0.00 35 1001.0
20260504190202 80 180 9.0 9.0 0.00 0.00 0.00 35 1001.0
20260504185003 80 68 6.0 7.0 0.00 0.00 0.00 32 1000.7
20260504183902 80 113 3.0 6.0 0.00 0.00 0.00 34 1000.3
20260504182702 80 135 4.0 8.0 0.00 0.00 0.00 32 1000.7
20260504181503 80 180 7.0 7.0 0.00 0.00 0.00 32 1000.7
20260504180502 81 203 3.0 6.0 0.00 0.00 0.00 31 1000.7
20260504175403 80 315 4.0 6.0 0.00 0.00 0.00 31 1001.0
20260504174203 80 338 2.0 5.0 0.00 0.00 0.00 34 1001.0
20260504173202 79 248 4.0 7.0 0.00 0.00 0.00 34 1000.7
20260504160402 73 113 4.0 6.0 0.00 0.00 0.00 43 1001.0
20260504150802 68 23 4.0 6.0 0.00 0.00 0.00 45 1001.0
20260504141103 61 338 2.0 3.0 0.00 0.00 0.00 55 1001.4
20260504130502 55 68 2.0 2.0 0.00 0.00 0.00 65 1001.7
20260504080802 50 158 0.0 0.0 0.00 0.00 0.00 74 1002.7
20260504050202 57 158 0.0 0.0 0.00 0.00 0.00 55 1005.1
20260504045102 58 158 0.0 0.0 0.00 0.00 0.00 50 1005.4
20260504044002 58 158 0.0 0.0 0.00 0.00 0.00 53 1005.4
20260504041701 58 158 0.0 0.0 0.00 0.00 0.00 51 1005.8
20260504040602 59 158 0.0 0.0 0.00 0.00 0.00 54 1005.4
20260504035304 59 158 0.0 0.0 0.00 0.00 0.00 50 1005.8
20260504034203 61 158 0.0 0.0 0.00 0.00 0.00 50 1005.8
20260504032502 61 158 0.0 0.0 0.00 0.00 0.00 48 1006.4
20260504031102 61 158 0.0 0.0 0.00 0.00 0.00 46 1006.1
20260504025304 62 158 0.0 0.0 0.00 0.00 0.00 46 1006.4
20260504023803 62 158 0.0 0.0 0.00 0.00 0.00 46 1006.4
20260504022801 63 158 0.0 0.0 0.00 0.00 0.00 46 1006.4
20260504021603 63 158 0.0 0.0 0.00 0.00 0.00 45 1006.4
20260504020402 64 158 0.0 0.0 0.00 0.00 0.00 41 1006.4
20260504015402 65 158 0.0 0.0 0.00 0.00 0.00 40 1006.4
20260504014302 66 158 0.0 0.0 0.00 0.00 0.00 40 1006.8
20260504012102 68 158 0.0 0.0 0.00 0.00 0.00 37 1006.8
20260504005802 70 45 0.0 0.0 0.00 0.00 0.00 35 1006.8
20260504004702 71 158 0.0 0.0 0.00 0.00 0.00 34 1006.4
20260504003602 72 270 1.0 1.0 0.00 0.00 0.00 34 1006.8
20260504001402 74 180 1.0 3.0 0.00 0.00 0.00 30 1006.8
20260503235202 76 0 2.0 3.0 0.00 0.00 0.00 30 1007.1
20260503234102 77 68 3.0 3.0 0.00 0.00 0.00 30 1007.1
20260503233004 78 45 2.0 2.0 0.00 0.00 0.00 30 1007.1
20260503230802 79 23 4.0 4.0 0.00 0.00 0.00 27 1007.1
20260503225703 79 45 5.0 5.0 0.00 0.00 0.00 27 1007.1
20260503224602 78 23 2.0 6.0 0.00 0.00 0.00 30 1007.1
20260503223503 80 45 1.0 4.0 0.00 0.00 0.00 30 1007.5
20260503222304 79 180 4.0 5.0 0.00 0.00 0.00 30 1007.1
20260503221202 78 225 3.0 4.0 0.00 0.00 0.00 30 1007.1
20260503215101 77 315 1.0 6.0 0.00 0.00 0.00 30 1007.5
20260503213902 79 203 1.0 4.0 0.00 0.00 0.00 27 1007.8
20260503212802 77 45 2.0 5.0 0.00 0.00 0.00 30 1007.5
20260503211702 77 158 4.0 4.0 0.00 0.00 0.00 31 1007.8
20260503210602 77 23 3.0 6.0 0.00 0.00 0.00 30 1008.1